Lid_Strength_Index
2 2 2 2 2 1 1 1 1 1 1 1 1 1 1 -0 -0 2 5 2 1 -2 -2 1 3 5 4 4 4 4 8 10 11 10 9 7 6 6 6 6 5 4 4 3 2
2 2 2 1 2 2 1 1 1 1 1 1 1 1 1 1 2 5 2 -0 -2 -2 1 3 5 6 6 5 5 6 9 9 9 8 8 7 7 6 6 7 6 5 4 3 2
2 2 2 1 2 2 2 2 2 2 2 2 2 2 2 1 7 7 -1 -1 -0 -0 2 2 3 5 7 4 5 6 9 6 8 9 7 7 7 7 6 7 6 5 5 4 3
2 2 2 2 2 2 2 2 2 2 2 2 2 2 2 2 13 4 -1 -0 1 1 2 4 5 7 8 7 5 8 6 6 6 6 6 7 6 7 7 5 5 5 3 4 4
3 3 2 2 2 2 2 2 2 2 2 2 2 2 3 7 8 3 -0 1 2 3 4 5 7 7 9 7 6 7 6 7 6 6 6 6 8 7 7 5 5 4 4 4 4
3 3 3 3 2 2 2 1 1 1 1 1 2 2 6 10 4 2 3 2 3 4 4 4 6 6 8 8 7 6 6 6 7 7 7 8 7 8 8 6 5 4 4 4 4
4 3 3 3 3 2 2 1 1 1 1 2 2 3 6 7 3 3 3 3 3 2 4 2 2 5 5 8 6 6 8 7 7 8 8 7 9 9 6 6 6 5 4 4 4
4 4 3 3 3 2 2 2 2 1 1 2 2 4 8 3 2 3 3 4 2 2 2 2 2 4 6 5 6 8 8 11 7 8 8 8 11 8 6 7 7 6 5 5 4
4 4 4 3 2 2 2 2 2 2 2 2 4 6 9 3 4 2 2 4 2 1 1 1 2 5 6 9 10 9 11 11 9 7 8 8 10 8 8 7 7 7 5 5 4
4 4 3 2 2 2 2 2 4 4 4 3 4 7 6 8 4 2 0 1 3 3 4 5 5 8 8 11 14 12 12 11 10 8 9 9 9 9 8 8 6 7 7 5 5
5 4 3 3 3 2 3 4 7 8 7 9 9 9 8 5 4 3 1 3 3 5 9 6 10 13 10 10 9 10 11 11 9 7 8 10 10 8 9 8 8 7 6 6 5
4 4 4 3 3 3 4 7 8 7 11 7 7 7 6 5 7 5 1 6 7 10 7 10 13 8 8 8 10 10 12 12 10 8 9 9 10 9 8 8 8 8 7 6 5
4 4 3 3 3 4 6 6 4 5 10 9 7 8 6 5 7 6 4 5 8 10 10 12 10 8 9 9 11 11 11 12 12 9 8 10 11 10 9 8 8 8 7 6 6
4 4 3 3 6 5 7 5 4 4 13 12 9 7 5 4 7 3 4 6 8 10 9 10 8 10 11 10 10 13 9 9 11 12 15 10 14 11 9 9 10 9 8 8 6
4 4 3 4 5 7 6 5 5 6 19 11 9 4 5 7 6 6 3 6 10 10 10 12 11 11 12 11 9 11 8 9 9 12 12 12 14 11 11 11 9 9 9 8 8
5 4 3 5 5 5 4 5 6 14 19 14 10 10 9 7 7 6 7 5 7 10 10 10 8 8 9 8 8 8 10 10 10 11 17 13 13 12 11 10 10 11 10 10 9
5 4 4 4 7 4 5 8 14 17 14 14 13 11 10 10 10 9 10 11 12 15 15 12 11 8 8 11 9 9 11 17 18 18 17 13 14 11 9 10 11 11 11 11 11
5 6 7 5 5 5 8 12 19 20 17 12 12 11 12 10 10 10 11 13 10 11 14 15 17 11 9 10 10 10 11 15 19 19 16 14 16 12 10 10 10 10 9 9 9
6 7 7 7 6 6 10 17 17 17 13 13 13 14 13 11 10 11 12 12 11 11 15 15 15 10 10 9 8 11 14 10 14 18 16 13 12 10 11 11 11 10 9 9 8
7 9 9 6 7 8 12 16 17 14 12 12 17 14 15 12 12 12 12 10 11 9 9 13 16 12 10 9 9 10 8 14 12 18 19 16 15 12 12 12 11 10 9 9 8
9 12 9 6 7 11 15 17 17 13 12 13 14 14 13 13 13 13 12 10 9 9 9 10 12 13 11 11 12 11 12 12 11 13 16 17 14 11 11 11 10 9 8 8 9
11 14 8 7 13 15 16 17 14 14 12 12 11 12 12 12 13 12 12 11 7 8 12 9 12 15 13 11 10 11 12 11 14 15 14 15 13 11 10 10 9 9 9 9 9
14 14 8 8 16 16 18 16 14 15 13 13 13 11 11 12 14 11 11 7 7 9 11 10 13 16 15 12 11 12 11 12 12 12 14 15 13 10 10 10 9 9 9 9 9
13 15 12 10 13 15 17 17 16 13 14 13 12 11 12 13 10 12 10 8 7 7 7 8 12 13 16 14 12 13 11 12 12 14 14 13 12 11 11 11 10 9 8 9 9
13 15 14 16 15 15 15 15 16 16 14 12 13 13 13 16 14 13 10 9 8 7 8 10 14 12 11 11 11 12 12 11 12 12 14 12 12 11 10 10 9 8 8 9 9
14 14 14 17 16 15 14 16 16 15 14 15 15 13 13 15 13 14 12 10 10 9 9 9 14 13 14 11 11 13 11 11 11 11 12 12 12 10 9 9 9 9 9 9 8
11 10 12 14 15 15 15 15 15 14 13 12 13 13 14 12 10 9 8 8 8 9 11 10 12 14 16 13 13 16 13 11 11 10 11 12 10 10 10 9 9 8 8 8 8